Regional Weather Roundup
Issued by NWS Albany, NY

Home | Current Version | Previous Version | Text Only | Print | Product List | Glossary On
Versions: 1 2 3 4 5 6 7 8 9 10 11 12 13 14 15 16 17 18 19 20 21 22 23 24 25 26 27 28 29 30 31 32 33 34 35 36 37 38 39 40 41 42 43 44 45 46 47 48 49 50
000
ASUS41 KALY 231510
RWRALY

NEW YORK STATE HOURLY WEATHER ROUNDUP
NATIONAL WEATHER SERVICE ALBANY NY
1100 AM EDT FRI JUN 23 2017

NOTE: "FAIR" INDICATES FEW OR NO CLOUDS BELOW 12,000 FEET WITH NO
SIGNIFICANT WEATHER AND/OR NO OBSTRUCTIONS TO VISIBILITY.

NYZ032-033-038>043-046>054-057>066-NYZ062>081-082-084-231600-
EAST


CITY           SKY/WX    TMP DP  RH WIND       PRES   REMARKS
ALBANY         CLOUDY    80  68  66 S7        29.71F
GLENS FALLS    NOT AVBL
POUGHKEEPSIE   MOSUNNY   83  70  64 S8        29.74F
NEWBURGH       PTSUNNY   82  72  69 SW12      29.78F
MONTGOMERY     CLOUDY    81  72  74 SW8       29.75F
ISLIP          CLOUDY    77  72  84 S10G26    29.80F
NEW YORK CITY  CLOUDY    81  74  79 SW14G22   29.77F
CENTRAL PARK   CLOUDY    80  73  79 W5        29.80F
$$

NYZ005>009-017-018-044>046-055-056-231600-
CENTRAL


CITY           SKY/WX    TMP DP  RH WIND       PRES   REMARKS
FULTON         PTSUNNY   77  69  76 VRB5      29.66F
SYRACUSE       LGT RAIN  76  69  79 S17       29.67F
ROME           CLOUDY    76  70  82 S6        29.69F
ELMIRA         NOT AVBL
BINGHAMTON     NOT AVBL
MONTICELLO     CLOUDY    77  68  73 S8        29.81F
$$

NYZ026>034-041>043-087-231600-
NORTH


CITY           SKY/WX    TMP DP  RH WIND       PRES   REMARKS
WATERTOWN      CLOUDY    70  69  97 SW5       29.66F
FORT DRUM      NOT AVBL
OGDENSBURG     CLOUDY    70  68  94 S7        29.63F
MASSENA        LGT RAIN  72  69  90 SW10      29.63F
SARANAC LAKE   CLOUDY    68  66  93 S7        29.70F
PLATTSBURGH    LGT RAIN  67  64  90 SE6       29.67F
$$

NYZ001>004-010>016-019>021-085-231600-
WEST


CITY           SKY/WX    TMP DP  RH WIND       PRES   REMARKS
NIAGARA FALLS  LGT RAIN  73  67  81 SW16      29.63S
BUFFALO        LGT RAIN  74  67  78 SW14      29.64F
DUNKIRK        LGT RAIN  72  69  90 S12       29.64F
JAMESTOWN      CLOUDY    66  64  94 S12       29.70F
WELLSVILLE     CLOUDY    69  65  86 S8        29.76S FOG
ROCHESTER      PTSUNNY   81  68  64 SW14G20   29.63F
PENN YAN       CLOUDY    78  65  63 S15       29.69F
$$

             KEY
       WCI = WIND CHILL INDEX
       VSB = VISIBILITY
       HX  = HEAT INDEX
$$



USA.gov is the U.S. government's official web portal to all federal, state and local government web resources and services.